STARLINK-32431, 61256

Orbit data source: Space-Track

STARLINK-32431, 61256 is a payload satellite owned by SpaceX/Seattle (US) in LEO that was launched on Wed, 25 Sep 2024 UTC via an FALCON 9 launch vehicle from the Air Force Western Test Range (AFWTR). Payloads include a variety of satellites, spacecraft, and rockets equipped with specific instruments for various scientific and technological missions. These include communications satellites like Starlink; space stations such as the ISS; scientific satellites like the Hubble; Earth observation satellites from companies like Planet Labs, Umbra, and HawkEye 360; GPS; miniature CubeSats for education and research; and military/defense satellites.

Loading next visibility...
STARLINK-32431 details
Identifier
61256, 2024-175P
Orbit
LEO
Last TLE update22 hours ago
Origin
Flag of USSpaceX/Seattle (US)
ManufacturerSpaceX/Seattle
MissionOperational spacecraft
Bus & MotorSTARLINK V2M, Unknown motor
Mass730 kg wet, ~700 kg dry
Launch date (UTC)
2024-09-25 (3 months ago)
Launch vehicle
FALCON 9
Launch site
Air Force Western Test Range (AFWTR)
Object type
Payload
Rocket body
Debris
Shape & HBRUnknown
Radar Cross SectionLarge (>1 m²)

Expand to show TLE details & history

TLE from 22 hours ago
0 STARLINK-32431
1 61256U 24175P   24355.60332461  .00001959  00000-0  58950-4 0  9998
2 61256  53.1589  99.5032 0001227  72.9392 287.1747 15.39611834 13422
Epoch: 2024-12-20T14:28Z
Definitive object data (Epoch: 2024-12-20T14:28:47.246Z)
Latitude-0.00003°
Longitude152.63986°
Altitude447.912 km
Speed7.645 km/s
True Right ascension06h 38m 00s
True Declination0° 00' 00"
Sunlit
Object was in full shadow at TLE epoch
Visualization TLE readout
Latitude30.95636°
Longitude174.86772°
Altitude448.421 km
Speed7.648 km/s
Apparent Right ascension04h 30m 58s
Apparent Declination-7° 02' 22"
Sunlit
Object is in full shadow
Visualization observer readout
Local Sidereal Time11:29:35
Azimuth273.999° WNW
Elevation-15.737°
Doppler factor1
Orbital elements
Apogee altitude448.351 km
Perigee altitude446.676 km
Semi-major axis6,825.651 km
Eccentricity0.0001227
Inclination53.1589°
RAAN99.5032°
Arg. of periapsis72.9392°
True anomaly287.16127°
Mean anomaly287.1747°
Eccentric anomaly287.16798°
Mean motion3.84882 °/min
BSTAR0.00005895
Orbital period93.54 mins
Loading maneuver chart data...
Loading historical data...
Loading historical data...
Loading historical data...
Loading historical data...
Loading historical data...
Loading historical data...
Loading historical data...

STARLINK-32431 Visibility forecast

Observer location: undefined°, undefined

Span
Click to sort rows by Start time (UTC) header in descending order
Start Az.
Max El. time (UTC)
Max El. Az.
Max El.
End time (UTC)
End Az.
4 mins2024-12-21 15:53:47.454Z340.641° N2024-12-21 15:55:47.454Z45.318° ENE29.609°2024-12-21 15:57:47.454Z92.862° ESE
4 mins2024-12-21 17:30:47.454Z274.015° WNW2024-12-21 17:32:47.454Z225.162° WSW23.32°2024-12-21 17:34:47.454Z180.328° SSW
4 mins2024-12-22 08:42:47.454Z179.229° S2024-12-22 08:44:47.454Z128.505° SE24.888°2024-12-22 08:46:47.454Z81.304° E
5 mins2024-12-22 10:19:47.454Z271.759° WNW2024-12-22 10:21:47.454Z323.278° NNW28.694°2024-12-22 10:24:47.454Z32.217° NE
|